Regional Weather Roundup
Issued by NWS

Home | Current Version | Previous Version | Graphics & Text | Print | Product List | Glossary On
Versions: 1 2 3 4 5 6 7 8 9 10 11 12 13 14 15 16 17 18 19 20 21 22 23 24 25 26 27 28 29 30 31 32 33 34 35 36 37 38 39 40 41 42 43 44 45 46 47 48 49
000
ASUS45 KCYS 281310
RWRWY

WYOMING REGIONAL WEATHER ROUNDUP
NATIONAL WEATHER SERVICE CHEYENNE WY
600 AM MST SUN DEC 28 2014

NOTE:  "FAIR" INDICATES FEW OR NO CLOUDS BELOW 12,000 FEET
WITH NO SIGNIFICANT WEATHER AND/OR OBSTRUCTIONS TO VISIBILITY.

WYZ001-281400-
YELLOWSTONE NATIONAL PARK

CITY           SKY/WX    TMP DP  RH WIND       PRES   REMARKS
LK YELLOWSTONE   N/A     11   6  81 CALM      29.83F
W YELLOWSTONE  NOT AVBL

$$
WYZ002>013-054>058-071-098>099-281400-
NORTHERN WYOMING

CITY           SKY/WX    TMP DP  RH WIND       PRES   REMARKS
JACKSON        CLOUDY    16  16 100 SW7       29.90F WCI   6
CODY           FAIR      27   9  46 NW16G23   29.78F WCI  14
GREYBULL       MOCLDY     1  -2  87 CALM      29.91S
WORLAND        FAIR       0  -5  79 SW8       29.90S WCI -14
SHERIDAN       MOCLDY    11   4  73 N5        29.84S WCI   3
BUFFALO        MOCLDY    17   6  62 SW7       29.80F WCI   8
GILLETTE       CLOUDY    19  10  68 SE3       29.83F
HULETT           N/A    N/A N/A N/A MISG        N/A
NEWCASTLE      FAIR       9   5  85 CALM      29.91S

$$
WYZ014>020-022>026-101>103-281400-
CENTRAL WYOMING

CITY           SKY/WX    TMP DP  RH WIND       PRES   REMARKS
BIG PINEY      LGT SNOW  -3  -7  82 CALM      29.94F FOG
PINEDALE       LGT SNOW   5   1  85 W3        29.95R
DUBOIS         NOT AVBL
LANDER         FAIR       9  -1  64 W9        29.84S WCI  -4
RIVERTON       CLOUDY    13   2  61 W13       29.84F WCI  -2
CASPER         CLOUDY    20  11  68 SW26G33   29.86R WCI   2
DOUGLAS        CLOUDY    24  13  62 W6        29.86S WCI  17

$$
WYZ021-027>030-104>119-281400-
SOUTHERN WYOMING

CITY           SKY/WX    TMP DP  RH WIND       PRES   REMARKS
EVANSTON       CLOUDY    16  10  77 S15       29.96F WCI   1
FORT BRIDGER   CLOUDY    20  14  76 SW23G32   29.96F WCI   3
ROCK SPRINGS   CLOUDY    15   8  73 S10       29.96F WCI   2
DIXON          LGT SNOW  19  10  68 S13G22    30.05S WCI   6
RAWLINS        CLOUDY    17   8  67 SW25G33   29.90F WCI  -1
SARATOGA       CLOUDY    18   9  68 S5        29.95F WCI  11
LARAMIE        MOCLDY    17   4  56 SW15G23   29.86F WCI   2
CHEYENNE       CLOUDY    21   4  47 W6        29.88F WCI  13
TORRINGTON     MOCLDY    11   3  70 SE8       29.92F WCI  -1
PINE BLUFFS    CLOUDY     7   1  78 MISG      29.93F

$$



USA.gov is the U.S. government's official web portal to all federal, state and local government web resources and services.